Cloud_Cover
100 100 100 100 100 100 100 100 100 100 100 100 100 100 100 92 6 2 1 1 5 76 100 100 100 100 100 100 100 84 63 98 100 100 100 24 96 20 25 100 100 50 12 9 48
100 100 100 100 100 100 100 100 100 100 100 100 100 100 100 95 47 4 0 0 1 83 100 100 100 100 100 100 100 75 100 100 100 100 100 70 100 100 42 100 100 51 5 8 49
97 100 100 100 93 100 100 100 100 100 100 100 100 100 100 100 52 10 5 5 5 27 64 100 100 100 100 100 100 100 100 100 100 100 100 100 100 100 99 100 55 20 36 39 9
100 100 100 100 98 79 100 100 100 100 100 100 99 99 100 100 95 25 6 5 5 5 5 52 100 100 100 100 100 100 100 100 100 100 100 100 100 100 100 100 46 5 6 5 5
100 100 100 100 94 86 93 81 92 100 100 100 100 56 99 100 100 100 86 5 5 5 5 5 93 100 100 100 100 100 100 100 100 77 100 100 100 100 100 96 38 8 33 17 5
99 99 86 27 20 2 4 1 5 13 19 32 54 25 6 84 100 100 100 93 5 5 5 6 52 99 100 97 100 100 100 100 100 100 100 100 100 100 100 100 47 15 8 41 53
3 41 22 68 4 17 0 4 1 5 5 5 23 8 37 58 14 8 83 100 100 2 0 3 62 44 100 100 96 100 100 100 100 100 100 100 100 100 86 30 76 100 94 78 64
54 8 11 7 2 16 50 76 68 1 2 5 11 60 26 32 8 5 31 96 100 86 2 1 5 22 100 100 100 100 100 100 100 100 100 100 100 100 61 50 100 100 6 8 88
98 39 5 5 11 2 2 0 0 2 0 1 8 39 6 20 6 5 45 55 96 91 5 5 0 5 53 100 100 100 100 100 100 100 100 100 100 100 10 100 100 100 38 29 10
41 87 5 5 10 0 0 0 0 0 0 0 0 0 1 3 4 5 5 64 98 38 6 5 5 2 6 100 100 100 86 100 100 100 100 100 100 100 50 100 91 41 9 53 100
12 5 5 0 0 0 0 0 0 0 0 0 0 0 0 0 0 0 5 16 87 89 99 5 5 60 83 5 80 100 100 100 100 100 100 100 100 100 100 100 45 100 100 100 100
5 9 3 0 0 0 0 17 93 94 74 0 0 0 0 0 0 5 47 100 100 98 70 40 5 26 43 5 5 100 100 100 100 100 100 100 100 100 96 99 100 100 100 94 100
5 5 5 0 0 0 5 2 28 60 100 1 0 0 0 0 0 3 5 13 100 97 99 43 19 6 58 87 42 51 100 100 100 100 100 100 100 100 100 100 100 100 100 100 100
5 3 1 0 3 4 44 0 1 96 4 0 0 0 0 0 0 0 0 6 67 97 65 5 96 64 5 68 98 21 100 100 100 100 100 93 100 100 54 100 100 100 100 100 100
5 3 4 0 0 5 5 5 37 56 0 0 0 0 0 0 0 0 0 0 92 99 60 82 100 100 78 99 98 76 100 100 100 100 100 76 95 100 100 100 100 100 100 100 100
2 2 5 3 3 0 1 5 81 2 0 0 0 0 0 0 0 0 0 0 2 98 99 100 100 100 98 100 92 95 100 100 100 100 100 100 94 100 52 100 100 100 100 100 100
5 5 5 5 5 5 20 6 3 5 1 1 1 0 0 0 0 0 0 0 0 4 100 100 100 100 100 100 38 98 100 100 72 100 100 100 94 100 100 100 100 100 100 100 100
98 16 5 5 5 11 5 5 5 2 2 5 5 1 0 0 0 0 0 0 0 0 4 100 100 100 100 100 100 100 100 100 71 28 7 100 100 100 100 100 100 100 100 100 100
100 62 68 26 5 5 5 5 0 19 64 42 5 5 2 0 0 0 0 0 0 0 0 0 70 100 100 100 100 100 94 100 100 43 35 95 96 100 100 100 100 100 100 100 100
100 100 97 100 100 88 13 7 40 99 90 64 5 4 69 49 12 3 3 0 0 0 0 1 1 95 100 100 100 100 100 100 100 95 18 100 100 100 100 100 100 100 100 100 100
42 79 100 100 100 100 99 84 94 100 76 8 99 84 93 94 85 5 15 5 4 1 5 32 12 1 97 99 100 100 100 100 100 99 52 37 100 100 100 100 100 100 100 94 53
91 16 76 100 45 86 42 60 41 7 17 6 10 93 98 80 97 93 49 29 72 98 100 97 94 74 5 100 100 100 100 100 100 85 79 80 95 100 100 100 100 100 100 100 100
93 89 53 25 55 49 34 48 57 63 61 5 5 3 5 68 92 66 59 100 100 98 100 89 18 46 14 20 98 98 100 100 100 100 6 82 97 100 100 100 100 100 100 100 100
74 76 94 36 66 8 77 15 13 30 6 5 4 3 5 5 5 4 10 76 100 100 100 100 86 13 12 13 7 100 100 100 100 99 55 6 98 100 100 100 100 100 100 100 100
84 57 44 86 86 82 8 32 30 21 2 4 2 5 5 5 5 5 5 5 4 8 88 100 100 100 93 96 96 44 100 100 100 84 66 93 3 29 100 100 100 100 100 100 100
92 94 94 78 92 99 29 47 5 5 34 5 5 0 5 5 5 5 4 5 5 5 5 91 56 96 25 34 88 100 100 100 100 98 9 11 28 100 100 100 100 100 100 100 100
100 88 97 74 90 87 55 5 4 0 6 5 5 32 5 1 1 1 0 2 5 64 5 50 33 98 51 75 100 100 24 9 100 42 6 27 100 100 100 100 100 100 100 100 100